Погода в Печерске

Россия / Смоленская область     54°50′57″N   32°02′12″E
темп.,
°C
ветер,
м/с
пор.,
м/с
влажн.,
%
обл.,
%
осадки,
мм/ч
давл.,
гПа
погр.,
м
5 марта, пт
пт500:00−5зсз489233 0.0 1007149
03:00−6сз489517 0.0 1009189
06:00−6сз369590 0.1 1010256
09:00−7зсз369595 0.1 1011316
12:00−3зсз358644 0.0 1012563
15:00−2з577572 0.4 1012994
18:00−4з477933 0.3 1014154
21:00−5сз6119064 0.3 1016361
6 марта, сб
сб600:00−5сз51184100 0.3 1017434
03:00−7сз3591100 0.3 1019129
06:00−9сз349376 0.0 101971
09:00−8зсз369138 0.0 1021186
12:00−4зсз47750 0.0 1021902
15:00−3зсз577125 0.0 10191224
18:00−5з378157 0.1 1018162
21:00−7зюз5108134 0.1 1017202
7 марта, вс
вс700:00−6зюз6147795 0.0 1015473
03:00−5юз8168097 0.0 1010613
06:00−4юз101893100 0.3 1004961
09:00−2зюз122089100 1.6 10001146
12:00−5сз101659100 1.9 10021499
15:00−3з9156250 1.9 10041994
18:00−4зюз6147220 0.0 1002744
21:00−5зюз7167534 0.0 1001701
8 марта, пн
пн800:00−5зюз8177719 0.0 1000721
03:00−7сз6148042 0.6 1001707
06:00−10зсз6138433 0.0 1003627
09:00−9сз6118643 0.0 1006844
12:00−7зсз688188 0.0 1008874
15:00−5зсз798393 0.1 1009995
18:00−6сз5987100 0.1 1010551
21:00−8ссз389499 0.1 1012416
9 марта, вт
вт900:00−11ссз3791100 0.0 1014205
03:00−13ссз489498 0.0 1016244
06:00−14сз379599 0.0 1018182
09:00−13ссз489296 0.1 1020454
12:00−10зсз458693 0.0 1020512
15:00−7з588081 0.0 1019701
18:00−6зюз4108296 0.0 1017316
21:00−5з7157893 0.0 1017656